Powrót do katalogu

USA 406

AktywnyMilitariaVLEO
NORAD 61027·PAYLOAD·🇺🇸 United States

Wystrzelony Sep 6, 2024 z Vandenberg Space Force Base

Loading…

Następne Przeloty (najbliższe 24 godziny)

TLE

NieaktualneSource: Mike McCants

Epoka: Sep 9, 2026, 20:05 UTC

1 61027U 24160G   26252.83701278 0.00000000  00000-0  00000-0 0    05
2 61027  70.0130 144.3787 0003000 333.1740  26.8260 14.96713958    04

Śledź USA 406 w czasie rzeczywistym z AllMySat

Download on the App Store